This demonstration page uses our WeatherBlox Daily Observations layout. Learn more.

Left ArrowRight Arrow

Hourly Observations for April 7, 2020

Temp ( °F °C ) Dew Point ( °F °C ) Humidity (%) Winds ( mph kmh ) Pressure ( in mb ) Visibility ( mi km ) Precip ( " mm )
12:51 am 00:51 Clear 60 15.6 23 -5 24 24 NW 6 9 29.94 1014 10 16.0934 0 0
1:51 am 01:51 Clear 57 13.9 24 -4.4 28 28 W 8 13 29.94 1014 10 16.0934 0 0
2:51 am 02:51 Clear 55 12.8 25 -3.9 31 31 WSW 3 6 29.94 1014 10 16.0934 0 0
3:51 am 03:51 Clear 51 10.6 25 -3.9 36 36 Calm 29.95 1014 10 16.0934 0 0
4:51 am 04:51 Clear 49 9.4 25 -3.9 39 39 Calm 29.96 1015 10 16.0934 0 0
5:51 am 05:51 Clear 42 5.6 23 -5 47 47 SE 3 6 29.98 1015 10 16.0934 0 0
6:51 am 06:51 Sunny 51 10.6 27 -2.8 39 39 Calm 30 1016 10 16.0934 0 0
7:51 am 07:51 Sunny 59 15 28 -2.2 31 31 SE 3 6 30.02 1017 10 16.0934 0 0
8:51 am 08:51 Sunny 64 17.8 31 -0.6 29 29 Calm 30.02 1017 10 16.0934 0 0
9:51 am 09:51 Sunny 67 19.4 30 -1.1 25 25 SW 6 9 30.02 1017 10 16.0934 0 0
10:51 am 10:51 Sunny 71 21.7 29 -1.7 21 21 ESE 5 7 29.99 1016 10 16.0934 0 0
11:51 am 11:51 Sunny 74 23.3 30 -1.1 20 20 VRB 6 9 29.97 1015 10 16.0934 0 0
12:51 pm 12:51 Sunny 76 24.4 32 0 20 20 Calm 29.94 1014 10 16.0934 0 0
1:51 pm 13:51 Sunny 78 25.6 30 -1.1 17 17 ESE 6 9 29.92 1013 10 16.0934 0 0
2:51 pm 14:51 Sunny 79 26.1 31 -0.6 17 17 N 6 9 29.88 1012 10 16.0934 0 0
3:51 pm 15:51 Sunny 81 27.2 31 -0.6 16 16 N 8 13 29.87 1012 10 16.0934 0 0
4:51 pm 16:51 Partly Cloudy 79 26.1 30 -1.1 17 17 Calm 29.86 1011 10 16.0934 0 0
5:51 pm 17:51 Partly Cloudy 77 25 30 -1.1 18 18 E 6 9 29.87 1012 10 16.0934 0 0
6:51 pm 18:51 Mostly Clear 73 22.8 30 -1.1 20 20 SSE 3 6 29.87 1012 10 16.0934 0 0
7:51 pm 19:51 Mostly Cloudy 69 20.6 31 -0.6 24 24 WNW 5 7 29.88 1012 10 16.0934 0 0
8:51 pm 20:51 Mostly Cloudy 70 21.1 33 0.6 26 26 WNW 8 13 29.89 1012 10 16.0934 0 0
9:51 pm 21:51 Cloudy 65 18.3 34 1.1 32 32 NNW 6 9 29.9 1013 10 16.0934 0 0
10:51 pm 22:51 Mostly Clear 65 18.3 32 0 29 29 NNW 7 11 29.9 1012 10 16.0934 0 0
11:51 pm 23:51 Mostly Cloudy 64 17.8 33 0.6 32 32 ESE 5 7 29.9 1013 10 16.0934 0 0

Powered by AerisWeather